,,Stat6,,Stat2,,Stat8,,Stat9,,Stat10,,Wind1,,Wind1,
time,status,PA1M_AVG,status,PR1M_SUM,status,RH1M_AVG,status,SR1M_AVG,status,TA1M_AVG,status,W1dAve1m,status,W1sAve1m,
2003-11-18, 00:00:00,VALID,918.642,VALID,0,VALID,98.1119,VALID,0,VALID,19.8923,VALID,358,VALID,0.117733,
2003-11-18, 00:01:00,VALID,918.644,VALID,0,VALID,98.1017,VALID,0.0169808,VALID,19.8923,VALID,5,VALID,0.128815,
2003-11-18, 00:02:00,VALID,918.636,VALID,0,VALID,98.028,VALID,0.0169808,VALID,19.9156,VALID,42,VALID,0.286399,
2003-11-18, 00:03:00,VALID,918.614,VALID,0,VALID,98.0636,VALID,0,VALID,19.9181,VALID,29,VALID,0.411914,
2003-11-18, 00:04:00,VALID,918.612,VALID,0,VALID,98.0992,VALID,0,VALID,19.931,VALID,26,VALID,0.068314,
2003-11-18, 00:05:00,VALID,918.605,VALID,0,VALID,98.0496,VALID,0,VALID,19.9377,VALID,20,VALID,0.37035,
2003-11-18, 00:06:00,VALID,918.581,VALID,0,VALID,97.9962,VALID,0.0169808,VALID,19.9539,VALID,17,VALID,0.401811,
2003-11-18, 00:07:00,VALID,918.564,VALID,0,VALID,98.0191,VALID,-0.0169808,VALID,19.97,VALID,17,VALID,0.255087,
2003-11-18, 00:08:00,VALID,918.534,VALID,0,VALID,97.9212,VALID,0,VALID,19.9765,VALID,16,VALID,0.522905,
2003-11-18, 00:09:00,VALID,918.527,VALID,0,VALID,97.8106,VALID,0,VALID,19.9733,VALID,14,VALID,0.455915,
2003-11-18, 00:10:00,VALID,918.528,VALID,0,VALID,97.6961,VALID,-0.0169808,VALID,19.9666,VALID,7,VALID,0.78125,
2003-11-18, 00:11:00,VALID,918.516,VALID,0,VALID,97.6236,VALID,-0.0169808,VALID,19.9805,VALID,345,VALID,0.716844,
2003-11-18, 00:12:00,VALID,918.504,VALID,0,VALID,97.574,VALID,0,VALID,19.9894,VALID,353,VALID,0.757813,
2003-11-18, 00:13:00,VALID,918.474,VALID,0,VALID,97.457,VALID,0,VALID,19.98,VALID,359,VALID,1.02617,
2003-11-18, 00:14:00,VALID,918.467,VALID,0,VALID,97.3197,VALID,-0.0169808,VALID,19.9733,VALID,347,VALID,0.893532,
2003-11-18, 00:15:00,VALID,918.452,VALID,0,VALID,97.3642,VALID,0,VALID,19.9765,VALID,7,VALID,0.590972,
2003-11-18, 00:16:00,VALID,918.446,VALID,0,VALID,97.3362,VALID,-0.0339617,VALID,19.9765,VALID,352,VALID,0.452009,
2003-11-18, 00:17:00,VALID,918.421,VALID,0,VALID,97.2358,VALID,0,VALID,19.9705,VALID,348,VALID,0.383903,
2003-11-18, 00:18:00,VALID,918.409,VALID,0,VALID,97.2917,VALID,-0.0169808,VALID,19.9641,VALID,348,VALID,0.199963,
2003-11-18, 00:19:00,VALID,918.395,VALID,0,VALID,97.3871,VALID,-0.0509425,VALID,19.9705,VALID,348,VALID,0.2859,
2003-11-18, 00:20:00,VALID,918.399,VALID,0,VALID,97.3757,VALID,-0.0169808,VALID,19.9571,VALID,322,VALID,0.449219,
2003-11-18, 00:21:00,VALID,918.371,VALID,0,VALID,97.3464,VALID,-0.0679233,VALID,19.9479,VALID,291,VALID,0.535714,
2003-11-18, 00:22:00,VALID,918.353,VALID,0,VALID,97.4303,VALID,0,VALID,19.9509,VALID,282,VALID,0.158668,
2003-11-18, 00:23:00,VALID,918.352,VALID,0,VALID,97.5422,VALID,-0.0169808,VALID,19.9835,VALID,342,VALID,0.173692,
2003-11-18, 00:24:00,VALID,918.314,VALID,0,VALID,97.471,VALID,0,VALID,19.9864,VALID,343,VALID,0.176525,
2003-11-18, 00:25:00,VALID,918.302,VALID,0,VALID,97.3782,VALID,-0.0169808,VALID,19.9832,VALID,342,VALID,0.52782,
2003-11-18, 00:26:00,VALID,918.283,VALID,0,VALID,97.2587,VALID,0,VALID,19.9666,VALID,342,VALID,0.449219,
2003-11-18, 00:27:00,VALID,918.282,VALID,0,VALID,97.3146,VALID,0,VALID,19.9601,VALID,342,VALID,0.364879,
2003-11-18, 00:28:00,VALID,918.265,VALID,0,VALID,97.293,VALID,0,VALID,19.9735,VALID,343,VALID,0.284702,
2003-11-18, 00:29:00,VALID,918.254,VALID,0,VALID,97.2549,VALID,0,VALID,19.9735,VALID,340,VALID,0.491279,
2003-11-18, 00:30:00,VALID,918.259,VALID,0,VALID,97.1684,VALID,0,VALID,19.9703,VALID,339,VALID,0.615885,
2003-11-18, 00:31:00,VALID,918.264,VALID,0,VALID,97.1938,VALID,-0.0169808,VALID,19.9668,VALID,337,VALID,0.335392,
2003-11-18, 00:32:00,VALID,918.251,VALID,0,VALID,97.2917,VALID,0,VALID,19.973,VALID,330,VALID,0.10103,
2003-11-18, 00:33:00,VALID,918.225,VALID,0,VALID,97.3159,VALID,0,VALID,20.0031,VALID,12,VALID,0.473544,
2003-11-18, 00:34:00,VALID,918.209,VALID,0,VALID,97.3693,VALID,0,VALID,20.0155,VALID,34,VALID,1.06339,
2003-11-18, 00:35:00,VALID,918.225,VALID,0,VALID,97.3922,VALID,0,VALID,20.0312,VALID,351,VALID,0.800037,
2003-11-18, 00:36:00,VALID,918.227,VALID,0,VALID,97.3668,VALID,0.0849042,VALID,20.01,VALID,254,VALID,0.692187,
2003-11-18, 00:37:00,VALID,918.225,VALID,0,VALID,97.4354,VALID,0.101885,VALID,19.9844,VALID,227,VALID,0.634811,
2003-11-18, 00:38:00,VALID,918.231,VALID,0,VALID,97.555,VALID,0.101885,VALID,19.965,VALID,225,VALID,0.534157,
2003-11-18, 00:39:00,VALID,918.215,VALID,0,VALID,97.7254,VALID,0.101885,VALID,19.9481,VALID,217,VALID,0.144436,
2003-11-18, 00:40:00,VALID,918.202,VALID,0,VALID,97.7724,VALID,0.101885,VALID,19.9427,VALID,214,VALID,0.0543155,
2003-11-18, 00:41:00,VALID,918.199,VALID,0,VALID,97.8423,VALID,0.0849042,VALID,19.9489,VALID,214,VALID,0,
2003-11-18, 00:42:00,VALID,918.18,VALID,0,VALID,97.7444,VALID,0.101885,VALID,19.9556,VALID,208,VALID,0.0594512,
2003-11-18, 00:43:00,VALID,918.172,VALID,0,VALID,97.6109,VALID,0.101885,VALID,19.9387,VALID,199,VALID,0.0178052,
2003-11-18, 00:44:00,VALID,918.157,VALID,0,VALID,97.6478,VALID,0.101885,VALID,19.965,VALID,171,VALID,0.130451,
2003-11-18, 00:45:00,VALID,918.152,VALID,0,VALID,97.6808,VALID,0.101885,VALID,19.9782,VALID,171,VALID,0,
2003-11-18, 00:46:00,VALID,918.135,VALID,0,VALID,97.6592,VALID,0.0849042,VALID,20.0011,VALID,171,VALID,0,
2003-11-18, 00:47:00,VALID,918.122,VALID,0,VALID,97.5499,VALID,0.101885,VALID,19.9839,VALID,164,VALID,0.112326,
2003-11-18, 00:48:00,VALID,918.11,VALID,0,VALID,97.4825,VALID,0.101885,VALID,19.9807,VALID,128,VALID,0.304315,
2003-11-18, 00:49:00,VALID,918.102,VALID,0,VALID,97.5435,VALID,0.101885,VALID,19.9911,VALID,128,VALID,0.545603,
2003-11-18, 00:50:00,VALID,918.096,VALID,0,VALID,97.335,VALID,0.0849042,VALID,19.9812,VALID,117,VALID,0.679874,
2003-11-18, 00:51:00,VALID,918.097,VALID,0,VALID,97.2574,VALID,0,VALID,19.9765,VALID,115,VALID,0.138148,
2003-11-18, 00:52:00,VALID,918.1,VALID,0,VALID,97.2472,VALID,0,VALID,19.9892,VALID,115,VALID,0.083939,
2003-11-18, 00:53:00,VALID,918.097,VALID,0,VALID,97.2116,VALID,0,VALID,19.9884,VALID,66,VALID,0.244792,
2003-11-18, 00:54:00,VALID,918.091,VALID,0,VALID,97.1697,VALID,0.0169808,VALID,20.0018,VALID,50,VALID,0.324128,
2003-11-18, 00:55:00,VALID,918.077,VALID,0,VALID,97.2434,VALID,0.0339617,VALID,20.018,VALID,38,VALID,0.727072,
2003-11-18, 00:56:00,VALID,918.071,VALID,0,VALID,97.3502,VALID,0.0169808,VALID,20.0471,VALID,22,VALID,0.892912,
2003-11-18, 00:57:00,VALID,918.052,VALID,0,VALID,97.0946,VALID,-0.0169808,VALID,20.0471,VALID,9,VALID,0.630208,
2003-11-18, 00:58:00,VALID,918.045,VALID,0,VALID,96.8683,VALID,0,VALID,20.0794,VALID,23,VALID,0.0388808,
2003-11-18, 00:59:00,VALID,918.04,VALID,0,VALID,96.6432,VALID,0,VALID,20.0987,VALID,23,VALID,0.209872,
2003-11-18, 01:00:00,VALID,918.009,VALID,0,VALID,96.5758,VALID,0,VALID,20.1286,VALID,23,VALID,0.298399,
2003-11-18, 01:01:00,VALID,917.989,VALID,0,VALID,96.6381,VALID,-0.0169808,VALID,20.134,VALID,23,VALID,0.29338,
2003-11-18, 01:02:00,VALID,917.962,VALID,0,VALID,96.5898,VALID,0.0169808,VALID,20.1504,VALID,23,VALID,0.643483,
2003-11-18, 01:03:00,VALID,917.946,VALID,0,VALID,96.4995,VALID,0,VALID,20.1566,VALID,20,VALID,0.411719,
2003-11-18, 01:04:00,VALID,917.941,VALID,0,VALID,96.4588,VALID,0.0169808,VALID,20.1733,VALID,20,VALID,0.0864702,
2003-11-18, 01:05:00,VALID,917.907,VALID,0,VALID,96.3876,VALID,0.0169808,VALID,20.1827,VALID,20,VALID,0.15298,
2003-11-18, 01:06:00,VALID,917.901,VALID,0,VALID,96.3584,VALID,0,VALID,20.1633,VALID,20,VALID,0.292014,
2003-11-18, 01:07:00,VALID,917.881,VALID,0,VALID,96.422,VALID,0.0169808,VALID,20.1534,VALID,20,VALID,0.0575284,
2003-11-18, 01:08:00,VALID,917.884,VALID,0,VALID,96.3813,VALID,0,VALID,20.1434,VALID,20,VALID,0,
2003-11-18, 01:09:00,VALID,917.879,VALID,0,VALID,96.3914,VALID,-0.0169808,VALID,20.1305,VALID,20,VALID,0,
2003-11-18, 01:10:00,VALID,917.87,VALID,0,VALID,96.5567,VALID,0,VALID,20.1278,VALID,20,VALID,0,
2003-11-18, 01:11:00,VALID,917.874,VALID,0,VALID,96.6992,VALID,0,VALID,20.131,VALID,20,VALID,0,
2003-11-18, 01:12:00,VALID,917.876,VALID,0,VALID,96.8632,VALID,0.0169808,VALID,20.1375,VALID,20,VALID,0.219922,
2003-11-18, 01:13:00,VALID,917.854,VALID,0,VALID,96.9293,VALID,0,VALID,20.1313,VALID,52,VALID,0.456395,
2003-11-18, 01:14:00,VALID,917.857,VALID,0,VALID,97.176,VALID,0,VALID,20.092,VALID,63,VALID,0.369141,
2003-11-18, 01:15:00,VALID,917.858,VALID,0,VALID,97.4927,VALID,0,VALID,20.0788,VALID,52,VALID,0.221657,
2003-11-18, 01:16:00,VALID,917.855,VALID,0,VALID,97.6033,VALID,0.0169808,VALID,20.0465,VALID,52,VALID,0.172602,
2003-11-18, 01:17:00,VALID,917.841,VALID,0,VALID,97.6923,VALID,0.0339617,VALID,20.0304,VALID,52,VALID,0.0246804,
2003-11-18, 01:18:00,VALID,917.845,VALID,0,VALID,97.8055,VALID,0.0169808,VALID,20.0177,VALID,52,VALID,0.00133384,
2003-11-18, 01:19:00,VALID,917.817,VALID,0,VALID,97.967,VALID,0,VALID,19.9981,VALID,52,VALID,0,
2003-11-18, 01:20:00,VALID,917.804,VALID,0,VALID,98.1488,VALID,0,VALID,20.0115,VALID,52,VALID,0.0706676,
2003-11-18, 01:21:00,VALID,917.77,VALID,0,VALID,98.2493,VALID,-0.0169808,VALID,20.0242,VALID,52,VALID,0.130952,
2003-11-18, 01:22:00,VALID,917.765,VALID,0,VALID,98.3141,VALID,0,VALID,20.021,VALID,52,VALID,0.00486111,
2003-11-18, 01:23:00,VALID,917.742,VALID,0,VALID,98.2912,VALID,0,VALID,20.0346,VALID,52,VALID,0.0305556,
2003-11-18, 01:24:00,VALID,917.742,VALID,0,VALID,98.3828,VALID,-0.0169808,VALID,20.0408,VALID,51,VALID,0.3125,
2003-11-18, 01:25:00,VALID,917.737,VALID,0,VALID,98.4349,VALID,0,VALID,20.0441,VALID,33,VALID,0.482422,
2003-11-18, 01:26:00,VALID,917.74,VALID,0,VALID,98.2887,VALID,-0.0169808,VALID,20.0344,VALID,23,VALID,0.614329,
2003-11-18, 01:27:00,VALID,917.736,VALID,0,VALID,98.1958,VALID,-0.0169808,VALID,20.018,VALID,9,VALID,0.611049,
2003-11-18, 01:28:00,VALID,917.739,VALID,0,VALID,98.1374,VALID,0,VALID,20.0051,VALID,4,VALID,0.42152,
2003-11-18, 01:29:00,VALID,917.727,VALID,0,VALID,98.0941,VALID,0,VALID,19.982,VALID,4,VALID,0.587081,
2003-11-18, 01:30:00,VALID,917.716,VALID,0,VALID,98.103,VALID,0,VALID,19.9757,VALID,4,VALID,0.420099,
2003-11-18, 01:31:00,VALID,917.704,VALID,0,VALID,98.2454,VALID,-0.0339617,VALID,19.9822,VALID,4,VALID,0.397866,
2003-11-18, 01:32:00,VALID,917.694,VALID,0,VALID,98.276,VALID,0,VALID,19.9892,VALID,4,VALID,0.350229,
2003-11-18, 01:33:00,VALID,917.678,VALID,0,VALID,98.1704,VALID,0,VALID,19.9725,VALID,12,VALID,0.358631,
2003-11-18, 01:34:00,VALID,917.662,VALID,0,VALID,98.2378,VALID,0.0169808,VALID,19.9954,VALID,13,VALID,0.224019,
2003-11-18, 01:35:00,VALID,917.643,VALID,0,VALID,98.2899,VALID,0,VALID,20.0182,VALID,13,VALID,0.310902,
2003-11-18, 01:36:00,VALID,917.644,VALID,0,VALID,98.131,VALID,0,VALID,19.9978,VALID,357,VALID,0.537609,
2003-11-18, 01:37:00,VALID,917.619,VALID,0,VALID,98.1221,VALID,0,VALID,20.0013,VALID,358,VALID,0.558408,
2003-11-18, 01:38:00,VALID,917.615,VALID,0,VALID,98.0038,VALID,0.0169808,VALID,19.9946,VALID,11,VALID,0.566034,
2003-11-18, 01:39:00,VALID,917.614,VALID,0,VALID,98.0356,VALID,0,VALID,20.0018,VALID,13,VALID,0.656851,
2003-11-18, 01:40:00,VALID,917.607,VALID,0,VALID,97.8945,VALID,0,VALID,19.9887,VALID,6,VALID,0.768714,
2003-11-18, 01:41:00,VALID,917.604,VALID,0,VALID,97.85,VALID,0,VALID,19.9852,VALID,7,VALID,0.574319,
2003-11-18, 01:42:00,VALID,917.604,VALID,0,VALID,97.8373,VALID,0.0169808,VALID,19.9914,VALID,17,VALID,0.697409,
2003-11-18, 01:43:00,VALID,917.589,VALID,0,VALID,97.8716,VALID,0.0339617,VALID,20.0148,VALID,18,VALID,0.843369,
2003-11-18, 01:44:00,VALID,917.59,VALID,0,VALID,97.8601,VALID,0,VALID,20.0142,VALID,8,VALID,0.797247,
2003-11-18, 01:45:00,VALID,917.577,VALID,0,VALID,97.8423,VALID,0,VALID,20.021,VALID,360,VALID,0.275534,
2003-11-18, 01:46:00,VALID,917.563,VALID,0,VALID,97.6452,VALID,0.0339617,VALID,20.0046,VALID,354,VALID,0.367697,
2003-11-18, 01:47:00,VALID,917.541,VALID,0,VALID,97.6122,VALID,0.0169808,VALID,19.9954,VALID,359,VALID,0.675037,
2003-11-18, 01:48:00,VALID,917.53,VALID,0,VALID,97.6402,VALID,0.0509425,VALID,19.9978,VALID,1,VALID,0.656613,
2003-11-18, 01:49:00,VALID,917.521,VALID,0,VALID,97.6618,VALID,0.0169808,VALID,20.0113,VALID,3,VALID,0.57512,
2003-11-18, 01:50:00,VALID,917.505,VALID,0,VALID,97.6567,VALID,0.0169808,VALID,20.018,VALID,3,VALID,0.16673,
2003-11-18, 01:51:00,VALID,917.481,VALID,0,VALID,97.5753,VALID,0,VALID,19.9884,VALID,2,VALID,0.25218,
2003-11-18, 01:52:00,VALID,917.462,VALID,0,VALID,97.6249,VALID,0,VALID,19.9857,VALID,2,VALID,0.103379,
2003-11-18, 01:53:00,VALID,917.447,VALID,0,VALID,97.761,VALID,0,VALID,20.0048,VALID,2,VALID,0.316034,
2003-11-18, 01:54:00,VALID,917.436,VALID,0,VALID,97.7584,VALID,0,VALID,20.0083,VALID,2,VALID,0.415278,
2003-11-18, 01:55:00,VALID,917.42,VALID,0,VALID,97.864,VALID,0.0169808,VALID,20.0177,VALID,2,VALID,0.395117,
2003-11-18, 01:56:00,VALID,917.409,VALID,0,VALID,97.9619,VALID,0.0169808,VALID,20.0341,VALID,4,VALID,0.469295,
2003-11-18, 01:57:00,VALID,917.397,VALID,0,VALID,97.9174,VALID,0,VALID,20.0274,VALID,13,VALID,0.68378,
2003-11-18, 01:58:00,VALID,917.39,VALID,0,VALID,98.0483,VALID,0,VALID,20.017,VALID,19,VALID,0.584872,
2003-11-18, 01:59:00,VALID,917.381,VALID,0,VALID,98.0954,VALID,0,VALID,20.0272,VALID,22,VALID,0.678125,
2003-11-18, 02:00:00,VALID,917.37,VALID,0,VALID,98.0954,VALID,0,VALID,20.008,VALID,22,VALID,0.647274,
2003-11-18, 02:01:00,VALID,917.369,VALID,0,VALID,98.0738,VALID,0,VALID,20.0018,VALID,22,VALID,0.635975,
2003-11-18, 02:02:00,VALID,917.357,VALID,0,VALID,98.0547,VALID,0.0169808,VALID,19.9825,VALID,17,VALID,0.776972,
2003-11-18, 02:03:00,VALID,917.358,VALID,0,VALID,98.1475,VALID,0,VALID,19.9596,VALID,11,VALID,0.930398,
2003-11-18, 02:04:00,VALID,917.342,VALID,0,VALID,98.1615,VALID,0,VALID,19.9402,VALID,11,VALID,1.18837,
2003-11-18, 02:05:00,VALID,917.339,VALID,0,VALID,98.1895,VALID,0.0509425,VALID,19.9139,VALID,9,VALID,1.28466,
2003-11-18, 02:06:00,VALID,917.336,VALID,0,VALID,98.2404,VALID,0.0509425,VALID,19.9077,VALID,9,VALID,1.35733,
2003-11-18, 02:07:00,VALID,917.313,VALID,0,VALID,98.2289,VALID,0.0509425,VALID,19.8816,VALID,6,VALID,1.34611,
2003-11-18, 02:08:00,VALID,917.305,VALID,0,VALID,98.2989,VALID,0.0169808,VALID,19.8721,VALID,9,VALID,1.00817,
2003-11-18, 02:09:00,VALID,917.292,VALID,0,VALID,98.3917,VALID,0,VALID,19.8689,VALID,14,VALID,1.08705,
2003-11-18, 02:10:00,VALID,917.276,VALID,0,VALID,98.44,VALID,0,VALID,19.8597,VALID,18,VALID,1.09884,
2003-11-18, 02:11:00,VALID,917.256,VALID,0,VALID,98.4425,VALID,0.0169808,VALID,19.8595,VALID,28,VALID,0.779576,
2003-11-18, 02:12:00,VALID,917.251,VALID,0,VALID,98.5227,VALID,0.0169808,VALID,19.8625,VALID,15,VALID,0.840116,
2003-11-18, 02:13:00,VALID,917.243,VALID,0,VALID,98.557,VALID,0.0169808,VALID,19.8692,VALID,3,VALID,0.989769,
2003-11-18, 02:14:00,VALID,917.245,VALID,0,VALID,98.5761,VALID,0.0339617,VALID,19.8625,VALID,20,VALID,0.789773,
2003-11-18, 02:15:00,VALID,917.255,VALID,0,VALID,98.6015,VALID,0.0169808,VALID,19.8823,VALID,16,VALID,0.857422,
2003-11-18, 02:16:00,VALID,917.241,VALID,0,VALID,98.6117,VALID,0.0339617,VALID,19.8654,VALID,12,VALID,0.771577,
2003-11-18, 02:17:00,VALID,917.227,VALID,0,VALID,98.5595,VALID,0.0509425,VALID,19.8729,VALID,355,VALID,0.706473,
2003-11-18, 02:18:00,VALID,917.221,VALID,0,VALID,98.5761,VALID,0,VALID,19.8366,VALID,1,VALID,0.736151,
2003-11-18, 02:19:00,VALID,917.216,VALID,0,VALID,98.6435,VALID,0.0679233,VALID,19.8304,VALID,11,VALID,0.853125,
2003-11-18, 02:20:00,VALID,917.201,VALID,0,VALID,98.6892,VALID,0.0169808,VALID,19.8376,VALID,354,VALID,0.621189,
2003-11-18, 02:21:00,VALID,917.199,VALID,0,VALID,98.7477,VALID,-0.0509425,VALID,19.8289,VALID,356,VALID,0.702734,
2003-11-18, 02:22:00,VALID,917.192,VALID,0,VALID,98.777,VALID,-0.0849042,VALID,19.8093,VALID,2,VALID,0.695694,
2003-11-18, 02:23:00,VALID,917.157,VALID,0,VALID,98.8533,VALID,-0.101885,VALID,19.8227,VALID,13,VALID,0.955128,
2003-11-18, 02:24:00,VALID,917.155,VALID,0,VALID,98.8673,VALID,-0.0849042,VALID,19.8058,VALID,4,VALID,1.01776,
2003-11-18, 02:25:00,VALID,917.127,VALID,0,VALID,98.838,VALID,-0.101885,VALID,19.8061,VALID,357,VALID,0.780078,
2003-11-18, 02:26:00,VALID,917.117,VALID,0,VALID,98.8647,VALID,-0.101885,VALID,19.8128,VALID,359,VALID,0.637952,
2003-11-18, 02:27:00,VALID,917.106,VALID,0,VALID,98.8851,VALID,-0.0849042,VALID,19.7934,VALID,11,VALID,0.903161,
2003-11-18, 02:28:00,VALID,917.096,VALID,0,VALID,98.9054,VALID,-0.101885,VALID,19.7904,VALID,20,VALID,0.865885,
2003-11-18, 02:29:00,VALID,917.088,VALID,0,VALID,98.9321,VALID,-0.101885,VALID,19.7869,VALID,22,VALID,0.946646,
2003-11-18, 02:30:00,VALID,917.07,VALID,0,VALID,98.9931,VALID,-0.101885,VALID,19.7899,VALID,4,VALID,0.542289,
2003-11-18, 02:31:00,VALID,917.066,VALID,0,VALID,99.0364,VALID,-0.101885,VALID,19.8098,VALID,13,VALID,0.873728,
2003-11-18, 02:32:00,VALID,917.044,VALID,0,VALID,98.9919,VALID,-0.0849042,VALID,19.8165,VALID,13,VALID,1.05769,
2003-11-18, 02:33:00,VALID,917.027,VALID,0,VALID,98.9512,VALID,-0.101885,VALID,19.8195,VALID,16,VALID,1.38281,
2003-11-18, 02:34:00,VALID,917.012,VALID,0,VALID,98.9003,VALID,-0.0849042,VALID,19.8257,VALID,21,VALID,1.50309,
2003-11-18, 02:35:00,VALID,916.99,VALID,0,VALID,98.8215,VALID,-0.0679233,VALID,19.816,VALID,16,VALID,1.46094,
2003-11-18, 02:36:00,VALID,916.978,VALID,0,VALID,98.7846,VALID,0,VALID,19.8319,VALID,18,VALID,1.18285,
2003-11-18, 02:37:00,VALID,916.963,VALID,0,VALID,98.7706,VALID,-0.0339617,VALID,19.8279,VALID,13,VALID,1.16425,
2003-11-18, 02:38:00,VALID,916.976,VALID,0,VALID,98.7566,VALID,-0.0169808,VALID,19.8244,VALID,18,VALID,1.06027,
2003-11-18, 02:39:00,VALID,916.973,VALID,0,VALID,98.7528,VALID,0,VALID,19.8177,VALID,23,VALID,0.364139,
2003-11-18, 02:40:00,VALID,916.967,VALID,0,VALID,98.7096,VALID,-0.0339617,VALID,19.8113,VALID,325,VALID,0.612165,
2003-11-18, 02:41:00,VALID,916.962,VALID,0,VALID,98.6867,VALID,-0.0169808,VALID,19.7924,VALID,290,VALID,0.389436,
2003-11-18, 02:42:00,VALID,916.946,VALID,0,VALID,98.7223,VALID,0,VALID,19.776,VALID,307,VALID,0.332485,
2003-11-18, 02:43:00,VALID,916.927,VALID,0,VALID,98.7795,VALID,-0.0169808,VALID,19.7792,VALID,318,VALID,0.276344,
2003-11-18, 02:44:00,VALID,916.907,VALID,0,VALID,98.763,VALID,0,VALID,19.7763,VALID,336,VALID,0.692014,
2003-11-18, 02:45:00,VALID,916.894,VALID,0,VALID,98.7045,VALID,-0.0169808,VALID,19.7695,VALID,342,VALID,0.259266,
2003-11-18, 02:46:00,VALID,916.861,VALID,0,VALID,98.6867,VALID,-0.0169808,VALID,19.7693,VALID,25,VALID,0.700347,
2003-11-18, 02:47:00,VALID,916.848,VALID,0,VALID,98.7108,VALID,0,VALID,19.7825,VALID,28,VALID,0.714571,
2003-11-18, 02:48:00,VALID,916.829,VALID,0,VALID,98.6727,VALID,-0.0169808,VALID,19.7857,VALID,16,VALID,1.15144,
2003-11-18, 02:49:00,VALID,916.805,VALID,0,VALID,98.5799,VALID,-0.0339617,VALID,19.7862,VALID,20,VALID,1.48384,
2003-11-18, 02:50:00,VALID,916.775,VALID,0,VALID,98.5176,VALID,-0.0339617,VALID,19.7892,VALID,30,VALID,1.24858,
2003-11-18, 02:51:00,VALID,916.746,VALID,0,VALID,98.3103,VALID,0,VALID,19.7924,VALID,31,VALID,1.55469,
2003-11-18, 02:52:00,VALID,916.754,VALID,0,VALID,98.1183,VALID,0.0169808,VALID,19.8053,VALID,14,VALID,0.990589,
2003-11-18, 02:53:00,VALID,916.761,VALID,0,VALID,98.0509,VALID,0,VALID,19.8118,VALID,20,VALID,0.924609,
2003-11-18, 02:54:00,VALID,916.755,VALID,0,VALID,98.0242,VALID,-0.0339617,VALID,19.7956,VALID,25,VALID,0.796875,
2003-11-18, 02:55:00,VALID,916.768,VALID,0,VALID,98.1246,VALID,0,VALID,19.7765,VALID,17,VALID,0.741815,
2003-11-18, 02:56:00,VALID,916.773,VALID,0,VALID,98.2009,VALID,0,VALID,19.7569,VALID,14,VALID,0.337391,
2003-11-18, 02:57:00,VALID,916.769,VALID,0,VALID,98.262,VALID,0,VALID,19.7204,VALID,14,VALID,0.00446429,
2003-11-18, 02:58:00,VALID,916.77,VALID,0,VALID,98.3777,VALID,0,VALID,19.7119,VALID,14,VALID,0,
2003-11-18, 02:59:00,VALID,916.755,VALID,0,VALID,98.4591,VALID,0,VALID,19.7015,VALID,14,VALID,0,
2003-11-18, 03:00:00,VALID,916.744,VALID,0,VALID,98.5099,VALID,0,VALID,19.6953,VALID,14,VALID,0.0675781,
2003-11-18, 03:01:00,VALID,916.727,VALID,0,VALID,98.5761,VALID,0.0169808,VALID,19.7022,VALID,9,VALID,0.513281,
2003-11-18, 03:02:00,VALID,916.731,VALID,0,VALID,98.6015,VALID,0.0169808,VALID,19.6953,VALID,358,VALID,0.679865,
2003-11-18, 03:03:00,VALID,916.728,VALID,0,VALID,98.6129,VALID,-0.0169808,VALID,19.6764,VALID,335,VALID,0.996094,
2003-11-18, 03:04:00,VALID,916.723,VALID,0,VALID,98.6803,VALID,-0.0339617,VALID,19.6734,VALID,333,VALID,0.780506,
2003-11-18, 03:05:00,VALID,916.719,VALID,0,VALID,98.7757,VALID,0,VALID,19.6697,VALID,344,VALID,0.990589,
2003-11-18, 03:06:00,VALID,916.717,VALID,0,VALID,98.8355,VALID,0,VALID,19.6828,VALID,359,VALID,0.938453,
2003-11-18, 03:07:00,VALID,916.724,VALID,0,VALID,98.8266,VALID,0,VALID,19.6791,VALID,359,VALID,1.00186,
2003-11-18, 03:08:00,VALID,916.723,VALID,0,VALID,98.7986,VALID,0,VALID,19.6791,VALID,1,VALID,0.909801,
2003-11-18, 03:09:00,VALID,916.704,VALID,0,VALID,98.8024,VALID,-0.0169808,VALID,19.689,VALID,8,VALID,0.883743,
2003-11-18, 03:10:00,VALID,916.71,VALID,0,VALID,98.7757,VALID,0,VALID,19.6853,VALID,19,VALID,0.773438,
2003-11-18, 03:11:00,VALID,916.705,VALID,0,VALID,98.7515,VALID,0,VALID,19.6828,VALID,5,VALID,0.675272,
2003-11-18, 03:12:00,VALID,916.707,VALID,0,VALID,98.6994,VALID,-0.0339617,VALID,19.6764,VALID,360,VALID,0.637463,
2003-11-18, 03:13:00,VALID,916.689,VALID,0,VALID,98.7185,VALID,0,VALID,19.6662,VALID,6,VALID,0.780869,
2003-11-18, 03:14:00,VALID,916.7,VALID,0,VALID,98.7121,VALID,0,VALID,19.6568,VALID,3,VALID,0.969283,
2003-11-18, 03:15:00,VALID,916.7,VALID,0,VALID,98.6905,VALID,-0.0169808,VALID,19.6761,VALID,8,VALID,0.746548,
2003-11-18, 03:16:00,VALID,916.685,VALID,0,VALID,98.6892,VALID,-0.0169808,VALID,19.6828,VALID,355,VALID,0.564862,
2003-11-18, 03:17:00,VALID,916.687,VALID,0,VALID,98.646,VALID,0,VALID,19.6697,VALID,7,VALID,0.910547,
2003-11-18, 03:18:00,VALID,916.68,VALID,0,VALID,98.6244,VALID,0,VALID,19.6766,VALID,10,VALID,0.950763,
2003-11-18, 03:19:00,VALID,916.67,VALID,0,VALID,98.5926,VALID,-0.0509425,VALID,19.6895,VALID,8,VALID,0.969703,
2003-11-18, 03:20:00,VALID,916.673,VALID,0,VALID,98.4934,VALID,-0.0169808,VALID,19.6731,VALID,353,VALID,0.856357,
2003-11-18, 03:21:00,VALID,916.678,VALID,0,VALID,98.4362,VALID,0,VALID,19.6707,VALID,357,VALID,0.704368,
2003-11-18, 03:22:00,VALID,916.687,VALID,0,VALID,98.3675,VALID,0,VALID,19.6741,VALID,348,VALID,0.822218,
2003-11-18, 03:23:00,VALID,916.688,VALID,0,VALID,98.3434,VALID,-0.0169808,VALID,19.6843,VALID,5,VALID,1.28398,
2003-11-18, 03:24:00,VALID,916.699,VALID,0,VALID,98.3154,VALID,-0.0169808,VALID,19.6843,VALID,360,VALID,0.755952,
2003-11-18, 03:25:00,VALID,916.698,VALID,0,VALID,98.3167,VALID,-0.0169808,VALID,19.6704,VALID,355,VALID,0.791061,
2003-11-18, 03:26:00,VALID,916.678,VALID,0,VALID,98.3217,VALID,0,VALID,19.6841,VALID,312,VALID,0.403646,
2003-11-18, 03:27:00,VALID,916.683,VALID,0,VALID,98.3586,VALID,0,VALID,19.6804,VALID,360,VALID,0.53782,
2003-11-18, 03:28:00,VALID,916.676,VALID,0,VALID,98.3446,VALID,-0.0509425,VALID,19.664,VALID,334,VALID,0.459695,
2003-11-18, 03:29:00,VALID,916.691,VALID,0,VALID,98.3726,VALID,0,VALID,19.661,VALID,351,VALID,0.223133,
2003-11-18, 03:30:00,VALID,916.695,VALID,0,VALID,98.3968,VALID,0,VALID,19.6543,VALID,351,VALID,0.165128,
2003-11-18, 03:31:00,VALID,916.682,VALID,0,VALID,98.3866,VALID,-0.0339617,VALID,19.6478,VALID,359,VALID,0.209339,
2003-11-18, 03:32:00,VALID,916.683,VALID,0,VALID,98.3624,VALID,-0.0509425,VALID,19.6513,VALID,339,VALID,0.62965,
2003-11-18, 03:33:00,VALID,916.685,VALID,0,VALID,98.2912,VALID,0,VALID,19.6481,VALID,347,VALID,0.460337,
2003-11-18, 03:34:00,VALID,916.693,VALID,0,VALID,98.262,VALID,-0.0169808,VALID,19.6349,VALID,15,VALID,0.808036,
2003-11-18, 03:35:00,VALID,916.697,VALID,0,VALID,98.2238,VALID,-0.0509425,VALID,19.6483,VALID,5,VALID,0.77793,
2003-11-18, 03:36:00,VALID,916.701,VALID,0,VALID,98.0814,VALID,-0.0169808,VALID,19.6418,VALID,9,VALID,1.31421,
2003-11-18, 03:37:00,VALID,916.716,VALID,0,VALID,97.9746,VALID,0,VALID,19.664,VALID,10,VALID,0.395894,
2003-11-18, 03:38:00,VALID,916.72,VALID,0,VALID,97.9097,VALID,-0.0339617,VALID,19.6709,VALID,349,VALID,0.0637429,
2003-11-18, 03:39:00,VALID,916.704,VALID,0,VALID,97.9085,VALID,0,VALID,19.6804,VALID,270,VALID,0.457122,